Snowfall_Accumulation
nan nan nan nan nan nan nan 0.0 2.3 0.0 0.0 1.2 1.7 3.4 0.0 nan 0.0 0.0 0.0 0.0 0.0 0.1 0.0 0.1 0.1 0.1 0.0 0.0 0.0 0.1 0.1 2.8 2.9 0.1 0.0 0.0 0.1 4.6 11.0 28.7 22.2 13.4 13.5 21.2
nan nan nan nan nan nan 0.0 0.3 0.0 0.0 0.0 9.2 1.8 0.1 0.0 0.0 0.0 0.0 0.0 0.0 0.0 0.0 0.1 0.8 0.0 0.1 0.0 0.0 0.0 0.2 0.2 2.1 3.6 0.5 0.6 0.0 0.4 0.3 0.5 5.5 10.2 17.4 21.0 20.5
nan nan nan nan nan nan 0.0 0.3 2.6 0.1 0.0 0.0 0.1 0.0 0.0 0.0 0.0 0.0 0.0 0.0 0.0 0.0 0.0 0.0 0.2 0.0 0.0 0.0 0.0 nan nan 1.1 2.8 4.0 1.8 0.3 3.7 0.7 0.4 1.8 19.1 10.4 12.5 11.0
nan nan nan nan nan nan 0.0 0.5 2.9 0.0 2.1 0.5 0.0 0.0 0.0 0.0 0.0 0.0 0.0 0.0 0.0 0.1 3.8 0.0 0.0 0.0 0.0 0.0 nan 0.0 0.0 3.0 0.0 0.0 0.0 0.0 0.3 0.3 0.5 4.6 3.2 9.4 9.6 6.6
nan nan nan nan nan nan 0.0 1.6 0.4 0.1 0.0 0.0 0.0 0.0 0.2 0.0 0.0 0.0 0.0 0.0 0.0 0.1 3.0 0.1 1.2 0.2 0.0 0.0 0.0 0.0 0.0 0.3 0.0 0.1 0.0 0.0 0.1 0.0 0.1 0.3 1.2 3.6 1.1 6.0
nan nan nan nan nan nan 0.0 0.1 0.0 0.2 nan 0.0 0.5 0.3 0.0 0.0 0.0 0.0 0.0 0.0 0.3 0.6 0.0 0.0 0.0 0.0 0.0 0.0 0.0 0.0 0.0 0.2 0.3 0.1 0.0 0.0 3.5 3.6 0.2 0.3 0.8 0.5 4.1 7.4
nan nan nan nan nan nan 0.0 0.0 0.0 1.4 2.1 0.5 0.2 0.0 0.0 0.0 0.0 0.0 0.0 0.0 0.0 0.0 0.0 0.0 0.0 0.0 0.0 0.0 0.0 0.0 0.2 0.1 0.2 0.9 0.1 10.5 1.6 0.0 0.3 0.4 0.2 0.3 0.2 0.3
nan nan nan nan nan nan 0.0 0.0 0.1 1.0 2.1 0.1 0.1 0.0 0.0 0.0 0.0 0.0 0.0 0.0 0.0 0.0 0.0 0.4 0.0 0.3 0.0 0.0 0.0 0.0 0.0 0.0 2.5 4.7 0.4 0.0 0.1 0.1 0.8 0.6 0.8 0.1 0.1 0.0
nan nan nan nan nan nan 0.0 0.0 0.0 0.4 1.8 0.4 0.0 0.6 0.0 0.4 0.2 0.2 0.0 0.0 0.0 0.0 0.3 1.0 0.6 0.6 0.0 0.0 0.0 0.0 0.0 0.0 1.4 1.5 0.5 2.3 0.3 0.0 0.0 0.1 2.3 0.0 0.0 0.0
nan nan nan nan nan nan 0.0 0.0 0.0 0.1 1.4 0.0 0.0 0.3 0.3 0.1 0.1 0.5 0.1 0.0 0.0 0.0 0.8 2.4 1.5 1.2 0.1 0.9 0.1 0.0 0.4 1.0 10.0 5.4 6.5 1.2 0.0 0.0 0.0 1.7 1.0 0.0 0.0 0.0
nan nan nan nan nan nan 0.0 0.0 0.0 0.0 0.3 0.0 0.0 0.0 0.0 0.0 0.1 0.7 0.0 1.5 1.0 0.5 1.9 2.9 2.0 1.4 1.4 0.7 0.1 0.1 0.6 2.4 4.7 2.9 5.9 12.0 0.0 0.0 0.2 1.0 0.0 0.0 0.0 0.0
nan nan nan nan nan nan nan 0.1 0.0 0.0 0.0 0.0 0.0 0.0 0.0 0.0 0.0 0.0 0.0 0.2 0.1 2.3 2.3 2.3 0.8 1.3 1.4 0.3 2.8 0.0 1.9 0.7 2.4 0.7 6.1 0.0 0.0 0.0 0.0 0.0 0.0 0.0 0.0 0.0
nan nan nan nan nan nan nan 0.0 0.0 0.0 0.3 0.0 0.0 0.0 0.0 0.0 0.0 0.0 0.3 0.1 0.0 0.1 0.0 1.4 0.8 0.4 0.3 1.6 0.9 0.2 0.0 0.0 0.4 0.6 0.0 0.0 0.0 0.0 0.0 0.0 0.0 0.0 0.0 0.0
nan nan nan nan nan nan nan 0.0 0.0 0.0 0.0 0.8 0.0 0.0 0.0 0.0 0.0 0.0 0.0 0.0 0.0 0.0 0.0 0.3 0.3 0.4 0.0 0.1 0.1 0.1 0.1 0.0 0.0 0.0 0.0 0.0 0.0 0.0 0.0 0.0 0.0 0.0 0.0 0.0
nan nan nan nan nan nan nan 0.0 0.0 0.0 0.1 0.9 0.2 0.0 0.0 0.0 0.0 0.0 0.0 0.0 0.0 0.0 0.1 0.3 0.2 0.0 0.1 0.0 0.0 0.0 0.0 0.0 0.3 0.4 0.0 0.0 0.0 0.0 0.0 0.0 0.0 0.0 0.0 0.0
nan nan nan nan nan nan 0.0 1.1 0.0 0.0 0.0 0.3 0.7 0.0 0.0 0.0 0.0 0.0 0.0 0.0 0.0 0.0 0.0 0.0 0.0 0.0 0.0 0.2 0.0 0.0 0.0 0.0 0.0 0.0 0.0 0.0 0.0 0.0 0.0 0.0 0.0 0.0 0.0 0.0
nan nan nan nan nan 0.0 0.1 0.0 0.0 nan 0.0 0.2 0.3 0.2 0.0 0.0 0.0 0.0 0.0 0.0 0.0 0.0 0.0 0.0 0.0 0.0 0.0 0.1 0.0 0.0 0.0 0.0 0.0 0.0 0.0 0.0 0.0 0.0 0.0 0.0 0.0 0.0 0.0 0.0
nan nan nan nan nan nan 0.0 0.0 nan nan 0.0 0.0 0.8 0.4 0.0 0.0 0.2 0.2 0.0 0.1 0.0 0.0 0.0 0.0 0.0 0.0 0.0 0.3 0.0 0.0 0.0 0.0 0.0 0.0 0.0 0.0 0.0 0.0 0.0 0.0 0.0 0.0 0.0 0.0
nan nan nan 0.0 0.0 0.2 0.0 nan nan 0.0 0.2 1.0 0.3 0.4 2.0 0.0 0.1 0.2 0.1 0.0 0.5 0.0 0.1 0.0 0.0 0.1 0.4 0.1 0.0 0.0 0.0 0.0 0.0 0.0 0.0 0.0 0.0 0.0 0.0 0.0 0.0 0.0 0.0 0.0
nan 0.0 0.0 2.7 0.1 nan nan 0.0 0.7 0.5 0.2 0.1 0.2 0.0 0.6 0.0 0.2 0.4 0.2 0.2 0.4 0.5 0.2 0.0 0.2 0.0 0.0 0.0 0.0 0.0 0.0 0.0 0.0 0.0 0.0 0.0 0.0 0.0 0.0 0.0 0.0 0.0 0.0 0.0
0.0 0.3 0.5 0.0 nan 0.0 0.2 3.0 2.1 0.5 0.4 0.1 0.3 0.1 0.2 0.1 0.4 0.4 0.2 0.8 0.4 1.0 0.3 0.2 0.3 0.8 0.2 0.0 0.1 0.0 0.0 0.0 0.0 0.0 0.0 0.0 0.0 0.0 0.0 0.0 0.0 0.0 0.0 0.0
0.0 0.0 0.0 0.0 0.2 0.6 0.1 1.5 0.4 0.2 0.0 0.0 0.0 0.0 0.0 0.0 0.0 0.4 0.5 0.3 0.3 0.1 0.1 1.8 1.5 0.2 0.0 0.0 0.0 0.0 0.0 0.0 0.0 0.0 0.0 0.0 0.0 0.0 0.0 0.0 0.0 0.0 0.0 1.1
0.0 0.1 0.0 0.3 1.3 26.3 0.6 3.4 0.4 2.9 0.1 0.2 0.0 0.5 0.0 0.0 0.1 0.5 0.4 1.6 2.9 0.0 2.6 1.2 0.7 0.1 0.0 0.0 0.0 0.0 0.0 0.0 0.0 0.0 0.0 0.0 0.0 0.0 0.0 0.0 0.0 0.1 0.1 0.3
0.3 0.3 30.1 2.7 1.4 0.3 0.3 0.1 0.2 0.1 0.1 0.0 0.1 0.3 0.5 0.4 1.0 0.6 1.0 0.3 0.2 2.5 2.9 1.1 0.3 0.0 0.0 0.0 0.0 0.0 0.0 0.0 0.0 0.0 0.0 0.0 0.0 0.2 0.2 1.5 2.1 1.8 0.6 1.8
0.3 0.3 12.7 2.2 0.2 0.2 0.2 0.2 0.1 0.0 0.0 0.1 0.4 0.3 0.4 1.0 1.8 0.3 0.1 1.6 2.0 1.4 0.8 1.4 0.2 0.0 0.0 0.0 0.0 0.0 0.0 0.3 0.2 0.0 0.0 1.1 1.0 0.2 0.9 0.6 0.2 0.1 2.1 2.2
0.1 0.0 0.3 0.2 1.0 2.6 2.1 0.4 0.4 0.0 0.1 0.2 0.2 0.4 1.3 1.3 0.8 0.3 0.6 0.2 2.4 1.3 0.4 0.3 0.3 0.0 0.0 0.0 0.0 0.0 0.0 0.0 0.0 0.0 0.0 0.0 0.7 0.7 0.0 0.1 0.1 2.5 1.7 4.4
0.0 1.9 0.3 0.3 0.3 0.8 0.5 0.2 0.1 0.0 0.2 2.3 0.8 2.0 0.7 0.5 2.2 1.6 0.7 2.3 1.8 0.5 0.3 0.3 0.0 0.0 0.0 0.0 0.0 0.4 0.0 0.0 0.0 0.0 0.0 0.0 0.0 0.0 0.0 0.0 0.0 0.0 0.1 2.9
Water_Equivalent
nan nan nan nan nan nan nan 0.00 0.62 0.00 0.00 0.42 0.65 0.95 0.00 nan 0.00 0.00 0.00 0.00 0.00 0.01 0.01 0.02 0.02 0.02 0.01 0.00 0.00 0.02 0.01 0.60 0.64 0.02 0.00 0.00 0.02 1.00 2.69 4.91 3.86 2.57 2.42 2.82
nan nan nan nan nan nan 0.00 0.10 0.01 0.00 0.00 2.10 0.48 0.03 0.00 0.00 0.00 0.00 0.00 0.00 0.00 0.00 0.02 0.17 0.00 0.01 0.00 0.00 0.00 0.04 0.03 0.44 0.76 0.13 0.15 0.01 0.07 0.06 0.11 1.39 2.41 2.74 3.35 2.96
nan nan nan nan nan nan 0.00 0.09 0.71 0.03 0.00 0.00 0.03 0.00 0.00 0.00 0.00 0.00 0.00 0.00 0.00 0.00 0.00 0.00 0.04 0.00 0.00 0.00 0.00 nan nan 0.26 0.57 0.71 0.27 0.08 0.67 0.14 0.07 0.37 3.13 1.61 1.88 1.65
nan nan nan nan nan nan 0.00 0.15 0.82 0.01 0.61 0.16 0.01 0.00 0.00 0.00 0.00 0.00 0.00 0.01 0.00 0.02 0.72 0.00 0.00 0.00 0.00 0.00 nan 0.00 0.00 0.72 0.01 0.01 0.00 0.01 0.05 0.05 0.09 0.59 0.51 1.48 1.34 0.95
nan nan nan nan nan nan 0.00 0.48 0.10 0.02 0.02 0.00 0.00 0.00 0.04 0.00 0.00 0.01 0.00 0.00 0.00 0.02 0.61 0.03 0.23 0.04 0.00 0.00 0.00 0.00 0.00 0.09 0.00 0.02 0.00 0.00 0.01 0.00 0.02 0.05 0.20 0.52 0.19 0.82
nan nan nan nan nan nan 0.00 0.02 0.00 0.06 nan 0.00 0.11 0.08 0.00 0.00 0.00 0.00 0.00 0.00 0.10 0.15 0.00 0.00 0.00 0.00 0.00 0.00 0.00 0.00 0.00 0.05 0.07 0.02 0.00 0.00 0.58 0.63 0.04 0.06 0.14 0.09 0.54 1.15
nan nan nan nan nan nan 0.00 0.00 0.01 0.33 0.44 0.12 0.05 0.00 0.00 0.00 0.00 0.01 0.00 0.00 0.00 0.00 0.00 0.00 0.00 0.00 0.00 0.00 0.00 0.00 0.06 0.01 0.04 0.21 0.03 1.42 0.26 0.00 0.06 0.07 0.04 0.05 0.04 0.05
nan nan nan nan nan nan 0.00 0.00 0.04 0.26 0.47 0.02 0.03 0.00 0.00 0.00 0.00 0.00 0.00 0.00 0.00 0.00 0.00 0.12 0.01 0.09 0.00 0.00 0.00 0.00 0.00 0.01 0.52 0.84 0.09 0.00 0.01 0.02 0.13 0.10 0.11 0.02 0.01 0.00
nan nan nan nan nan nan 0.00 0.00 0.00 0.13 0.41 0.09 0.00 0.15 0.00 0.11 0.04 0.07 0.00 0.00 0.00 0.00 0.07 0.26 0.12 0.13 0.00 0.00 0.00 0.00 0.00 0.00 0.35 0.33 0.09 0.36 0.06 0.00 0.00 0.03 0.32 0.00 0.00 0.00
nan nan nan nan nan nan 0.00 0.00 0.00 0.04 0.35 0.00 0.00 0.07 0.08 0.02 0.03 0.12 0.03 0.00 0.00 0.00 0.20 0.52 0.29 0.22 0.02 0.16 0.02 0.00 0.09 0.23 1.67 1.05 1.16 0.26 0.00 0.00 0.00 0.25 0.16 0.00 0.00 0.00
nan nan nan nan nan nan 0.00 0.00 0.00 0.01 0.09 0.00 0.00 0.00 0.00 0.00 0.03 0.16 0.01 0.33 0.23 0.13 0.42 0.61 0.41 0.27 0.28 0.12 0.02 0.02 0.11 0.44 0.83 0.52 0.97 1.65 0.00 0.00 0.03 0.19 0.00 0.00 0.00 0.00
nan nan nan nan nan nan nan 0.05 0.00 0.00 0.00 0.01 0.00 0.00 0.00 0.00 0.00 0.01 0.00 0.03 0.03 0.58 0.51 0.51 0.21 0.28 0.29 0.06 0.54 0.01 0.37 0.13 0.45 0.12 1.06 0.01 0.00 0.00 0.00 0.00 0.00 0.00 0.00 0.00
nan nan nan nan nan nan nan 0.00 0.00 0.00 0.10 0.00 0.00 0.00 0.00 0.00 0.00 0.00 0.07 0.01 0.00 0.04 0.01 0.33 0.20 0.08 0.07 0.30 0.16 0.04 0.00 0.00 0.14 0.13 0.00 0.01 0.00 0.00 0.00 0.00 0.00 0.00 0.00 0.00
nan nan nan nan nan nan nan 0.00 0.00 0.00 0.00 0.25 0.01 0.00 0.00 0.00 0.00 0.00 0.00 0.00 0.00 0.00 0.00 0.10 0.10 0.10 0.00 0.02 0.02 0.01 0.03 0.00 0.00 0.00 0.00 0.01 0.00 0.00 0.00 0.00 0.00 0.00 0.00 0.00
nan nan nan nan nan nan nan 0.00 0.00 0.00 0.04 0.24 0.05 0.00 0.00 0.00 0.00 0.00 0.00 0.00 0.00 0.00 0.04 0.09 0.07 0.00 0.03 0.00 0.00 0.00 0.00 0.00 0.09 0.14 0.00 0.00 0.00 0.00 0.00 0.00 0.00 0.00 0.00 0.00
nan nan nan nan nan nan 0.00 0.44 0.00 0.00 0.00 0.11 0.21 0.00 0.00 0.00 0.00 0.00 0.00 0.00 0.00 0.00 0.00 0.01 0.00 0.00 0.00 0.07 0.02 0.00 0.00 0.00 0.00 0.00 0.00 0.00 0.00 0.00 0.00 0.00 0.00 0.00 0.00 0.00
nan nan nan nan nan 0.00 0.03 0.01 0.00 nan 0.00 0.09 0.10 0.06 0.00 0.00 0.00 0.00 0.00 0.00 0.00 0.00 0.00 0.01 0.00 0.00 0.00 0.03 0.01 0.00 0.00 0.00 0.00 0.00 0.00 0.00 0.00 0.00 0.00 0.00 0.00 0.00 0.00 0.00
nan nan nan nan nan nan 0.00 0.00 nan nan 0.00 0.00 0.24 0.11 0.01 0.00 0.06 0.07 0.00 0.03 0.00 0.00 0.00 0.01 0.00 0.00 0.00 0.11 0.00 0.00 0.00 0.00 0.00 0.00 0.00 0.00 0.00 0.00 0.00 0.00 0.00 0.00 0.00 0.00
nan nan nan 0.00 0.00 0.09 0.00 nan nan 0.00 0.06 0.31 0.12 0.10 0.55 0.00 0.03 0.07 0.04 0.01 0.16 0.00 0.02 0.00 0.00 0.02 0.12 0.02 0.00 0.00 0.00 0.00 0.00 0.00 0.00 0.00 0.00 0.00 0.00 0.00 0.00 0.00 0.00 0.00
nan 0.00 0.02 1.01 0.05 nan nan 0.01 0.29 0.18 0.06 0.05 0.06 0.00 0.17 0.01 0.07 0.12 0.05 0.08 0.11 0.16 0.06 0.00 0.06 0.01 0.00 0.00 0.00 0.00 0.00 0.00 0.00 0.00 0.00 0.00 0.00 0.00 0.00 0.00 0.00 0.00 0.00 0.00
0.00 0.13 0.17 0.00 nan 0.00 0.07 1.01 0.70 0.15 0.12 0.03 0.06 0.02 0.05 0.03 0.13 0.12 0.05 0.24 0.12 0.26 0.08 0.07 0.10 0.17 0.05 0.00 0.02 0.00 0.00 0.00 0.00 0.00 0.00 0.00 0.00 0.00 0.00 0.00 0.00 0.00 0.00 0.00
0.00 0.00 0.00 0.00 0.08 0.20 0.03 0.48 0.13 0.05 0.00 0.01 0.00 0.00 0.00 0.01 0.01 0.13 0.16 0.09 0.11 0.01 0.04 0.53 0.36 0.07 0.00 0.00 0.00 0.00 0.00 0.00 0.00 0.00 0.00 0.00 0.00 0.00 0.00 0.00 0.00 0.00 0.00 0.33
0.00 0.04 0.02 0.11 0.45 4.86 0.20 0.92 0.15 1.09 0.05 0.05 0.01 0.21 0.01 0.00 0.03 0.16 0.12 0.57 0.91 0.01 0.90 0.29 0.18 0.03 0.00 0.00 0.00 0.00 0.00 0.00 0.00 0.00 0.00 0.00 0.00 0.00 0.00 0.00 0.00 0.03 0.04 0.09
0.09 0.10 5.19 0.96 0.54 0.13 0.13 0.06 0.07 0.04 0.03 0.02 0.02 0.11 0.15 0.12 0.29 0.23 0.33 0.11 0.06 0.77 0.58 0.30 0.11 0.00 0.00 0.00 0.00 0.00 0.00 0.01 0.00 0.00 0.00 0.00 0.01 0.05 0.06 0.46 0.68 0.50 0.15 0.47
0.09 0.09 2.64 0.72 0.07 0.07 0.08 0.06 0.05 0.02 0.00 0.02 0.12 0.08 0.10 0.29 0.57 0.12 0.05 0.55 0.59 0.35 0.24 0.38 0.07 0.00 0.00 0.00 0.00 0.00 0.00 0.11 0.05 0.00 0.00 0.34 0.30 0.07 0.24 0.17 0.05 0.02 0.56 0.55
0.04 0.01 0.10 0.07 0.36 1.03 0.85 0.18 0.14 0.00 0.05 0.06 0.07 0.12 0.34 0.37 0.26 0.07 0.24 0.06 0.50 0.33 0.11 0.08 0.09 0.00 0.00 0.00 0.00 0.00 0.00 0.00 0.00 0.00 0.00 0.01 0.21 0.19 0.01 0.02 0.03 0.70 0.48 1.18
0.00 0.75 0.11 0.13 0.12 0.30 0.19 0.06 0.03 0.00 0.08 0.73 0.21 0.44 0.15 0.14 0.49 0.34 0.17 0.64 0.46 0.13 0.10 0.10 0.00 0.00 0.00 0.00 0.01 0.13 0.01 0.00 0.00 0.00 0.00 0.00 0.00 0.00 0.00 0.00 0.00 0.01 0.02 0.83
SL_Ratio
nan nan nan nan nan nan nan nan 3.7 nan nan 2.8 2.6 3.6 0.0 nan nan nan nan nan nan 4.9 4.3 4.1 4.0 5.0 4.1 nan nan 4.5 4.3 4.7 4.6 4.4 nan 0.0 4.3 4.6 4.1 5.8 5.7 5.2 5.6 7.5
nan nan nan nan nan nan nan 2.9 4.1 nan nan 4.4 3.7 3.1 nan nan nan nan nan nan nan 0.0 4.4 4.9 4.2 4.5 nan nan nan 5.0 4.7 4.7 4.7 4.1 4.0 3.3 5.2 5.0 4.8 3.9 4.3 6.3 6.3 6.9
nan nan nan nan nan nan nan 3.1 3.6 2.6 nan nan 4.4 5.0 nan 2.5 nan nan nan 0.0 nan 4.0 nan nan 4.5 nan nan nan nan nan nan 4.3 4.9 5.6 6.7 4.2 5.5 5.3 5.3 4.9 6.1 6.4 6.6 6.6
nan nan nan nan nan nan nan 3.2 3.5 3.1 3.5 3.2 3.3 nan nan nan nan nan nan 4.6 4.0 5.0 5.3 0.0 nan nan nan nan nan nan 5.0 4.2 4.1 4.2 10.0 4.8 5.9 6.0 6.1 7.8 6.3 6.4 7.1 6.9
nan nan nan nan nan nan nan 3.3 3.9 3.5 3.1 nan nan 5.0 4.0 nan nan 3.8 5.0 nan nan 4.7 4.9 4.8 5.4 5.5 4.3 nan nan nan nan 3.8 nan 4.3 nan nan 4.6 nan 5.8 5.9 5.9 6.9 5.8 7.3
nan nan nan nan nan nan nan 2.6 0.0 3.8 nan 4.0 4.3 3.7 nan nan nan nan nan 0.0 3.6 4.2 nan nan nan nan nan nan nan nan nan 3.7 4.1 4.8 nan nan 6.1 5.7 5.8 5.8 5.7 5.6 7.7 6.4
nan nan nan nan nan nan nan nan 3.4 4.2 4.8 4.0 3.7 nan nan nan nan 3.9 nan nan 5.0 nan nan nan nan nan nan nan nan nan 3.9 4.1 3.6 4.3 4.1 7.4 6.1 5.7 5.2 5.7 5.4 5.0 5.1 5.1
nan nan nan nan nan nan nan nan 3.4 3.8 4.5 3.9 3.7 5.0 nan nan nan nan nan nan nan nan nan 3.3 4.0 3.6 nan nan nan nan nan 3.7 4.7 5.6 4.4 nan 5.3 5.1 5.7 5.8 6.7 4.8 4.9 5.0
nan nan nan nan nan nan nan nan nan 3.2 4.4 4.4 nan 3.6 nan 3.9 3.8 3.6 nan nan nan nan 3.5 3.9 5.1 4.8 7.5 6.7 nan nan nan nan 4.0 4.4 5.7 6.5 6.0 nan nan 4.9 7.3 4.6 nan nan
nan nan nan nan nan nan nan nan nan 3.1 4.0 nan nan 3.8 4.0 3.7 4.3 4.0 4.4 nan nan nan 4.0 4.7 5.0 5.3 5.6 5.8 6.4 5.3 4.2 4.4 6.0 5.2 5.6 4.6 3.3 nan nan 6.8 6.4 nan nan nan
nan nan nan nan nan nan nan nan nan 3.1 3.2 nan nan nan nan nan 4.1 4.2 4.0 4.4 4.4 4.0 4.5 4.8 4.8 5.1 5.0 5.6 5.8 5.2 5.3 5.5 5.7 5.5 6.1 7.3 0.0 nan 6.0 5.3 nan nan nan nan
nan nan nan nan nan nan nan 2.5 nan nan nan 3.2 nan nan nan nan nan 3.1 nan 4.5 4.0 3.9 4.4 4.4 4.0 4.5 5.0 5.7 5.3 4.5 5.0 5.4 5.4 5.6 5.8 3.6 nan 3.3 nan nan nan nan nan nan
nan nan nan nan nan nan nan nan nan 5.0 3.0 nan 3.3 nan nan nan nan nan 4.3 4.0 nan 3.6 3.3 4.3 4.3 5.6 4.7 5.5 5.5 5.0 nan nan 2.7 4.7 5.5 3.9 nan nan nan nan nan nan nan nan
nan nan nan nan nan nan nan nan nan nan nan 3.3 2.8 nan nan nan nan nan nan nan nan nan nan 3.2 2.8 3.8 nan 3.3 4.0 4.0 4.5 nan nan nan 5.0 3.0 nan nan nan nan nan nan nan nan
nan nan nan nan nan nan nan nan nan nan 3.1 3.5 3.1 nan nan nan nan nan nan nan nan nan 3.7 2.9 3.2 nan 3.2 nan 3.3 nan nan nan 3.1 2.7 nan nan nan nan nan nan nan nan nan nan
nan nan nan nan nan nan nan 2.5 nan nan nan 2.8 3.6 nan nan nan nan nan nan nan nan nan nan 2.7 nan nan 0.0 2.8 2.4 nan nan nan nan nan nan nan nan nan nan nan nan nan nan nan
nan nan nan nan nan nan 2.6 2.8 nan nan nan 2.7 3.4 3.5 nan nan nan nan nan nan nan nan 4.0 2.9 nan nan 10.0 2.8 2.6 nan nan nan nan nan nan nan nan nan nan nan nan nan nan nan
nan nan nan nan nan nan 2.7 nan nan nan nan 3.3 3.5 3.3 2.6 nan 3.4 3.1 nan 3.7 5.0 3.6 nan 2.8 nan nan 4.3 3.2 nan nan nan nan nan nan nan nan nan nan nan nan nan nan nan nan
nan nan nan nan nan 2.6 2.5 nan nan nan 2.9 3.4 2.9 3.4 3.6 nan 2.6 3.2 3.2 3.0 3.2 nan 2.7 nan nan 2.9 3.2 3.2 nan nan nan nan nan nan nan nan nan nan nan nan nan nan nan nan
nan nan 2.5 2.7 2.5 nan nan 2.5 2.5 2.5 2.6 2.8 3.1 nan 3.7 3.3 3.1 3.2 3.0 3.0 3.2 3.3 2.9 3.3 3.3 2.9 nan nan nan nan nan nan nan nan nan nan nan nan nan nan nan nan nan nan
nan 2.5 2.8 nan nan nan 2.6 2.9 2.9 3.1 3.5 4.3 4.6 4.2 3.9 2.7 3.2 3.3 3.2 3.2 3.1 3.8 4.0 3.0 3.1 4.5 3.9 5.0 3.7 nan nan nan nan nan nan nan nan nan nan nan nan nan nan nan
nan nan nan 5.0 2.6 2.8 3.3 3.1 3.1 3.0 3.8 3.3 2.5 nan nan 2.8 3.1 3.1 3.2 3.0 2.8 3.8 2.8 3.4 4.2 3.4 nan nan 3.6 nan nan nan nan nan nan nan nan nan nan nan nan nan nan 3.4
nan 2.5 2.5 3.1 2.8 5.4 2.9 3.7 2.7 2.7 2.8 2.8 2.4 2.6 2.5 2.3 2.9 3.0 3.1 2.9 3.2 2.6 2.9 4.0 4.2 3.3 nan nan nan nan nan nan nan nan nan nan nan nan nan nan 2.9 3.2 3.5 3.5
2.7 2.8 5.8 2.8 2.7 2.6 2.6 2.5 2.5 2.5 2.5 2.6 2.9 3.2 3.4 3.3 3.4 2.5 3.2 2.5 2.9 3.3 5.0 3.7 3.2 3.0 nan nan nan nan nan 3.2 5.0 nan nan 2.9 2.9 3.2 3.3 3.2 3.2 3.6 3.8 3.8
2.7 2.8 4.8 3.0 2.5 2.5 2.5 2.5 2.5 2.5 nan 2.8 3.5 3.3 3.6 3.4 3.2 2.9 2.5 2.9 3.3 4.0 3.6 3.6 2.7 nan nan nan nan nan 0.0 3.1 3.2 nan 2.9 3.3 3.4 3.8 3.8 3.5 3.7 3.8 3.9 4.0
2.6 2.4 2.5 2.5 2.8 2.5 2.5 2.5 2.5 2.7 3.0 2.9 3.3 3.4 3.8 3.5 3.1 3.8 2.7 4.0 4.7 4.0 3.5 3.0 3.1 nan nan nan nan nan nan nan nan nan nan 3.5 3.5 3.5 3.7 3.6 3.7 3.6 3.5 3.8
nan 2.6 2.5 2.5 2.5 2.6 2.5 2.5 2.5 0.0 2.9 3.2 3.9 4.6 4.8 3.8 4.4 4.7 4.0 3.5 3.9 3.5 3.2 3.2 1.7 nan nan 2.9 3.2 3.3 3.4 nan nan nan nan nan nan nan nan 3.3 3.6 4.1 3.8 3.6